When you browse on this site, cookies collect data to enhance your experience and personalize the content and advertising you see.
Visit our Privacy Policy to learn more. By continuing to use the site, you agree to this use of cookies and data.
  • In Czech Republic
  • List of Countries
  • For 7 days
  • Water Temperature
  • Satellite Maps
  • Weather Map
  • Weather Widgets
  • user-avatar
    Login

    Hourly Weather Mazari Sharif

    Today, 20 March, Wednesday

    Time Temperature Precipitation Wind Pressure Humidity
    00:00 +8°C° 0.6 mm 2 mps 654 mmHg 69%
    01:00 +7°C° 0.6 mm 2 mps 654 mmHg 73%
    02:00 +7°C° 0.6 mm 2 mps 654 mmHg 75%
    03:00 +7°C° 0.6 mm 1 mps 654 mmHg 78%
    04:00 +7°C° 0.6 mm 1 mps 654 mmHg 80%
    05:00 +7°C° 0.6 mm 1 mps 654 mmHg 79%
    06:00 +7°C° 0.6 mm 1 mps 654 mmHg 79%
    07:00 +7°C° 0.6 mm 1 mps 654 mmHg 78%
    08:00 +8°C° 0.6 mm 1 mps 654 mmHg 74%
    09:00 +8°C° 0.6 mm 1 mps 654 mmHg 70%
    10:00 +8°C° 0.6 mm 2 mps 654 mmHg 67%
    11:00 +9°C° 0.3 mm 2 mps 654 mmHg 64%
    12:00 +9°C° 0.3 mm 2 mps 654 mmHg 61%
    13:00 +10°C° 0.3 mm 2 mps 654 mmHg 58%
    14:00 +10°C° 0.2 mm 2 mps 654 mmHg 58%
    15:00 +10°C° 0.2 mm 2 mps 654 mmHg 57%
    16:00 +10°C° 0.2 mm 2 mps 654 mmHg 57%
    17:00 +10°C° 0.2 mm 2 mps 654 mmHg 59%
    18:00 +9°C° 0.2 mm 2 mps 654 mmHg 61%
    19:00 +10°C° 0.2 mm 1 mps 655 mmHg 63%
    20:00 +10°C° 0.3 mm 1 mps 655 mmHg 64%
    21:00 +8°C° 0.3 mm 0 mps 655 mmHg 66%
    22:00 +8°C° 0.3 mm 0 mps 655 mmHg 68%
    23:00 +8°C° 0.4 mm 0 mps 655 mmHg 70%

    Tomorrow, 21 March, Thursday

    Time Temperature Precipitation Wind Pressure Humidity
    00:00 +7°C° 0.4 mm 0 mps 655 mmHg 71%
    01:00 +7°C° 0.4 mm 0 mps 655 mmHg 73%
    02:00 +7°C° 0.3 mm 0 mps 655 mmHg 73%
    03:00 +7°C° 0.3 mm 0 mps 655 mmHg 74%
    04:00 +8°C° 0.3 mm 1 mps 655 mmHg 75%
    05:00 +8°C° 0 mm 1 mps 655 mmHg 72%
    06:00 +7°C° 0 mm 0 mps 656 mmHg 69%
    07:00 +8°C° 0 mm 0 mps 656 mmHg 66%
    08:00 +10°C° 0 mm 1 mps 656 mmHg 62%
    09:00 +10°C° 0 mm 1 mps 656 mmHg 58%
    10:00 +11°C° 0 mm 1 mps 656 mmHg 53%
    11:00 +12°C° 0 mm 1 mps 656 mmHg 51%
    12:00 +13°C° 0 mm 1 mps 656 mmHg 49%
    13:00 +13°C° 0 mm 2 mps 656 mmHg 47%
    14:00 +13°C° 0.1 mm 2 mps 656 mmHg 47%
    15:00 +14°C° 0.1 mm 2 mps 656 mmHg 47%
    16:00 +14°C° 0.1 mm 2 mps 656 mmHg 47%
    17:00 +13°C° 0.2 mm 2 mps 656 mmHg 51%
    18:00 +12°C° 0.2 mm 2 mps 656 mmHg 55%
    19:00 +12°C° 0.2 mm 2 mps 656 mmHg 60%
    20:00 +10°C° 0.3 mm 2 mps 656 mmHg 60%
    21:00 +10°C° 0.3 mm 2 mps 656 mmHg 61%
    22:00 +10°C° 0.3 mm 2 mps 656 mmHg 62%
    23:00 +10°C° 0.1 mm 2 mps 656 mmHg 60%

    Day after tomorrow, 22 March, Friday

    Time Temperature Precipitation Wind Pressure Humidity
    00:00 +9°C° 0.1 mm 2 mps 655 mmHg 58%
    01:00 +9°C° 0.1 mm 2 mps 655 mmHg 56%
    02:00 +9°C° 0 mm 2 mps 655 mmHg 53%
    03:00 +8°C° 0 mm 2 mps 654 mmHg 49%
    04:00 +8°C° 0 mm 2 mps 654 mmHg 46%
    05:00 +9°C° 0 mm 2 mps 655 mmHg 44%
    06:00 +9°C° 0 mm 2 mps 655 mmHg 41%
    07:00 +10°C° 0 mm 2 mps 655 mmHg 39%
    08:00 +12°C° 0 mm 2 mps 655 mmHg 37%
    09:00 +13°C° 0 mm 1 mps 655 mmHg 35%
    10:00 +15°C° 0 mm 1 mps 656 mmHg 34%
    11:00 +16°C° 0 mm 1 mps 655 mmHg 33%
    12:00 +16°C° 0 mm 2 mps 655 mmHg 31%
    13:00 +17°C° 0 mm 2 mps 655 mmHg 30%
    14:00 +17°C° 0 mm 2 mps 654 mmHg 30%
    15:00 +17°C° 0 mm 3 mps 654 mmHg 30%
    16:00 +17°C° 0 mm 3 mps 654 mmHg 30%
    17:00 +16°C° 0 mm 3 mps 654 mmHg 33%
    18:00 +14°C° 0 mm 3 mps 653 mmHg 37%
    19:00 +14°C° 0 mm 2 mps 653 mmHg 40%
    20:00 +13°C° 0.3 mm 2 mps 653 mmHg 47%
    21:00 +12°C° 0.3 mm 2 mps 653 mmHg 54%
    22:00 +10°C° 0.3 mm 2 mps 653 mmHg 61%
    23:00 +10°C° 0.3 mm 2 mps 653 mmHg 62%

    23 March, Saturday

    Time Temperature Precipitation Wind Pressure Humidity
    00:00 +10°C° 0.3 mm 2 mps 653 mmHg 64%
    01:00 +10°C° 0.3 mm 2 mps 653 mmHg 65%
    02:00 +9°C° 0.2 mm 2 mps 653 mmHg 67%
    03:00 +9°C° 0.2 mm 2 mps 654 mmHg 68%
    04:00 +9°C° 0.2 mm 2 mps 654 mmHg 69%
    05:00 +8°C° 0.2 mm 2 mps 654 mmHg 74%
    06:00 +8°C° 0.2 mm 2 mps 655 mmHg 79%
    07:00 +7°C° 0.2 mm 2 mps 655 mmHg 83%
    08:00 +8°C° 0.2 mm 2 mps 656 mmHg 80%
    09:00 +9°C° 0.2 mm 2 mps 656 mmHg 76%
    10:00 +9°C° 0.2 mm 2 mps 656 mmHg 72%
    11:00 +9°C° 0.3 mm 3 mps 656 mmHg 71%
    12:00 +10°C° 0.3 mm 3 mps 656 mmHg 69%
    13:00 +10°C° 0.3 mm 3 mps 656 mmHg 68%
    14:00 +10°C° 0.2 mm 3 mps 656 mmHg 67%
    15:00 +10°C° 0.2 mm 3 mps 655 mmHg 67%
    16:00 +10°C° 0.2 mm 3 mps 655 mmHg 67%
    17:00 +10°C° 0.1 mm 2 mps 655 mmHg 69%
    18:00 +9°C° 0.1 mm 2 mps 656 mmHg 71%
    19:00 +10°C° 0.1 mm 1 mps 656 mmHg 73%
    20:00 +9°C° 0.3 mm 1 mps 656 mmHg 74%
    21:00 +9°C° 0.3 mm 1 mps 656 mmHg 75%
    22:00 +9°C° 0.3 mm 1 mps 656 mmHg 76%
    23:00 +9°C° 0.4 mm 1 mps 656 mmHg 78%

    24 March, Sunday

    Time Temperature Precipitation Wind Pressure Humidity
    00:00 +8°C° 0.4 mm 1 mps 655 mmHg 79%
    01:00 +8°C° 0.4 mm 1 mps 655 mmHg 81%
    02:00 +8°C° 0.4 mm 1 mps 655 mmHg 82%
    03:00 +8°C° 0.4 mm 1 mps 655 mmHg 83%
    04:00 +6°C° 0.4 mm 0 mps 655 mmHg 84%
    05:00 +8°C° 0.1 mm 1 mps 655 mmHg 80%
    06:00 +9°C° 0.1 mm 1 mps 655 mmHg 75%
    07:00 +10°C° 0.1 mm 1 mps 656 mmHg 71%
    08:00 +10°C° 0 mm 2 mps 656 mmHg 63%
    09:00 +13°C° 0 mm 2 mps 656 mmHg 55%
    10:00 +14°C° 0 mm 2 mps 656 mmHg 47%
    11:00 +15°C° 0.1 mm 2 mps 655 mmHg 44%
    12:00 +16°C° 0.1 mm 2 mps 655 mmHg 42%
    13:00 +17°C° 0.1 mm 2 mps 654 mmHg 39%
    14:00 +17°C° 0.3 mm 3 mps 654 mmHg 41%
    15:00 +17°C° 0.3 mm 3 mps 654 mmHg 42%
    16:00 +17°C° 0.3 mm 3 mps 653 mmHg 44%
    17:00 +16°C° 0.3 mm 3 mps 653 mmHg 48%
    18:00 +15°C° 0.3 mm 2 mps 653 mmHg 52%
    19:00 +14°C° 0.3 mm 2 mps 653 mmHg 56%
    20:00 +14°C° 0 mm 2 mps 653 mmHg 57%
    21:00 +13°C° 0 mm 1 mps 653 mmHg 58%
    22:00 +12°C° 0 mm 0 mps 652 mmHg 59%
    23:00 +13°C° 0 mm 1 mps 653 mmHg 60%

    25 March, Monday

    Time Temperature Precipitation Wind Pressure Humidity
    00:00 +13°C° 0 mm 1 mps 653 mmHg 60%
    01:00 +13°C° 0 mm 1 mps 653 mmHg 60%
    02:00 +12°C° 0 mm 2 mps 653 mmHg 64%
    03:00 +9°C° 0 mm 3 mps 653 mmHg 68%
    04:00 +7°C° 0 mm 4 mps 653 mmHg 71%
    05:00 +8°C° 0 mm 3 mps 653 mmHg 72%
    06:00 +8°C° 0 mm 3 mps 654 mmHg 73%
    07:00 +8°C° 0 mm 3 mps 654 mmHg 74%
    08:00 +9°C° 0 mm 2 mps 654 mmHg 69%
    09:00 +10°C° 0 mm 2 mps 654 mmHg 64%
    10:00 +12°C° 0 mm 2 mps 655 mmHg 59%
    11:00 +13°C° 0 mm 2 mps 654 mmHg 57%
    12:00 +12°C° 0 mm 3 mps 654 mmHg 56%
    13:00 +13°C° 0 mm 3 mps 653 mmHg 54%
    14:00 +12°C° 0 mm 3 mps 653 mmHg 55%
    15:00 +12°C° 0 mm 3 mps 653 mmHg 56%
    16:00 +12°C° 0 mm 3 mps 653 mmHg 57%
    17:00 +11°C° 0.2 mm 3 mps 653 mmHg 59%
    18:00 +12°C° 0.2 mm 2 mps 653 mmHg 62%
    19:00 +10°C° 0.2 mm 2 mps 653 mmHg 64%
    20:00 +10°C° 0.4 mm 3 mps 653 mmHg 67%
    21:00 +9°C° 0.4 mm 3 mps 653 mmHg 70%
    22:00 +8°C° 0.4 mm 3 mps 653 mmHg 72%
    23:00 +8°C° 0.5 mm 3 mps 653 mmHg 74%
    Show more